Dalzell, IL

7:47 AM CDT on October 01, 2016 (GMT -0500)
Illinois Valley Regional-Duncan

Weather History for KVYS - May, 2014

Change the Weather History Date:

Monday, May 5, 2014

  Actual Average Record
Temperature  
Mean Temperature 54 °F -  
Max Temperature 64 °F 68 °F 87 °F (1982)
Min Temperature 45 °F 45 °F 29 °F (1973)
Degree Days  
Heating Degree Days 10    
Growing Degree Days 4 (Base 50)    
Moisture  
Dew Point 34 °F    
Average Humidity 49    
Maximum Humidity 70    
Minimum Humidity 36    
Precipitation  
Precipitation 0.00 in - - ()
Sea Level Pressure  
Sea Level Pressure 29.92 in    
Wind  
Wind Speed 13 mph (ENE)    
Max Wind Speed 24 mph    
Max Gust Speed 29 mph    
Visibility 10 miles    
Events Rain , Thunderstorm    
Averages and records for this station are not official NWS values.
T = Trace of Precipitation, MM = Missing Value Source: NWS Daily Summary

Daily Weather History Graph

Daily Weather History Graph

Search for Another Location

Airport or City:

Trip Planner

Search our weather history database for the weather conditions in past years. The results will help you decide how hot, cold, wet, or windy it might be!

Date:

Astronomy

May. 05, 2014 Rise Set
Actual Time 5:48 AM CDT 7:58 PM CDT
Civil Twilight 5:18 AM CDT 8:28 PM CDT
Nautical Twilight 4:41 AM CDT 9:06 PM CDT
Astronomical Twilight 4:00 AM CDT 9:47 PM CDT
Moon 11:08 AM CDT (5/5) 12:42 AM CDT (5/5)
Length of Visible Light 15h 10m
Length of Day
14h 09m
Waxing Crescent, 37% of the Moon is Illuminated
May 5
Waxing Crescent
May 6
First Quarter
May 14
Full
May 21
Last Quarter
May 28
New

Hourly Weather History & Observations

Time (CDT) Temp. Windchill Dew Point Humidity Pressure Visibility Wind Dir Wind Speed Gust Speed Precip Events Conditions
12:15 AM 49.3 °F - 25.9 °F 40% 29.99 in 10.0 mi East 12.7 mph 18.4 mph N/A   Scattered Clouds
12:35 AM 49.1 °F - 26.4 °F 41% 29.99 in 10.0 mi East 6.9 mph 16.1 mph N/A   Scattered Clouds
12:55 AM 48.4 °F - 26.8 °F 43% 29.97 in 10.0 mi East 12.7 mph 18.4 mph N/A   Scattered Clouds
1:15 AM 48.4 °F - 27.0 °F 43% 29.98 in 10.0 mi East 11.5 mph 18.4 mph N/A   Clear
1:35 AM 48.2 °F - 26.4 °F 43% 29.97 in 10.0 mi East 12.7 mph 16.1 mph N/A   Clear
1:55 AM 47.5 °F - 29.1 °F 49% 29.98 in 10.0 mi East 12.7 mph - N/A   Scattered Clouds
2:15 AM 47.3 °F - 29.5 °F 50% 29.96 in 10.0 mi East 9.2 mph - N/A Thunderstorm Clear
2:35 AM 47.1 °F - 29.3 °F 50% 29.92 in 10.0 mi East 13.8 mph 19.6 mph N/A   Clear
2:55 AM 47.3 °F - 29.8 °F 51% 29.95 in 10.0 mi East 13.8 mph 18.4 mph N/A   Clear
3:15 AM 47.5 °F - 30.6 °F 52% 29.92 in 10.0 mi East 15.0 mph 18.4 mph N/A Rain Light Rain
3:35 AM 46.4 °F - 32.5 °F 59% 29.93 in 10.0 mi Calm Calm - N/A   Scattered Clouds
3:55 AM 45.5 °F - 33.1 °F 62% 29.93 in 10.0 mi Calm Calm - N/A Thunderstorm Scattered Clouds
4:15 AM 45.5 °F 40.3 °F 32.2 °F 60% 29.91 in 10.0 mi East 10.4 mph - N/A   Scattered Clouds
4:35 AM 47.1 °F - 30.9 °F 53% 29.91 in 10.0 mi East 6.9 mph 18.4 mph N/A   Clear
4:55 AM 47.1 °F - 31.3 °F 54% 29.92 in 10.0 mi East 11.5 mph 18.4 mph N/A   Clear
5:15 AM 46.4 °F 42.4 °F 31.5 °F 56% 29.92 in 10.0 mi East 8.1 mph 16.1 mph N/A   Clear
5:35 AM 46.0 °F - 32.0 °F 58% 29.93 in 10.0 mi Calm Calm - N/A   Clear
5:55 AM 45.3 °F 43.0 °F 33.1 °F 62% 29.94 in 10.0 mi ENE 4.6 mph - N/A   Clear
6:15 AM 45.9 °F 42.3 °F 33.6 °F 62% 29.94 in 10.0 mi ENE 6.9 mph 16.1 mph N/A   Clear
6:35 AM 45.7 °F 39.5 °F 35.1 °F 66% 29.96 in 10.0 mi NE 13.8 mph - N/A   Clear
6:55 AM 45.9 °F 39.7 °F 36.5 °F 70% 29.93 in 10.0 mi East 13.8 mph 17.3 mph N/A   Clear
7:15 AM 47.3 °F - 36.9 °F 67% 29.95 in 10.0 mi ENE 15.0 mph 19.6 mph N/A   Clear
7:35 AM 47.8 °F - 37.0 °F 66% 29.95 in 10.0 mi ENE 13.8 mph - N/A   Clear
7:55 AM 49.5 °F - 36.5 °F 61% 29.93 in 10.0 mi East 17.3 mph 21.9 mph N/A   Clear
8:15 AM 51.1 °F - 36.1 °F 57% 29.93 in 10.0 mi East 16.1 mph - N/A   Clear
8:35 AM 52.3 °F - 35.2 °F 52% 29.92 in 10.0 mi East 13.8 mph 23.0 mph N/A   Clear
8:55 AM 53.6 °F - 35.6 °F 51% 29.91 in 10.0 mi East 17.3 mph 21.9 mph N/A   Clear
9:15 AM 54.7 °F - 34.3 °F 46% 29.89 in 10.0 mi ESE 15.0 mph 21.9 mph N/A   Clear
9:35 AM 55.8 °F - 34.0 °F 44% 29.90 in 10.0 mi East 11.5 mph 21.9 mph N/A   Clear
9:55 AM 57.2 °F - 34.9 °F 43% 29.90 in 10.0 mi East 15.0 mph 21.9 mph N/A   Clear
10:15 AM 57.7 °F - 34.9 °F 42% 29.91 in 10.0 mi East 12.7 mph 16.1 mph N/A   Clear
10:35 AM 59.2 °F - 36.0 °F 42% 29.91 in 10.0 mi ENE 16.1 mph 21.9 mph N/A   Clear
10:55 AM 59.9 °F - 36.3 °F 41% 29.91 in 10.0 mi ENE 18.4 mph 25.3 mph N/A   Clear
11:15 AM 60.3 °F - 36.3 °F 41% 29.92 in 10.0 mi East 16.1 mph 23.0 mph N/A   Clear
11:35 AM 61.2 °F - 37.0 °F 41% 29.91 in 10.0 mi ENE 19.6 mph 25.3 mph N/A   Clear
11:55 AM 62.1 °F - 37.2 °F 40% 29.91 in 10.0 mi East 17.3 mph 24.2 mph N/A   Clear
12:15 PM 62.6 °F - 39.2 °F 42% 29.90 in 10.0 mi East 19.6 mph 23.0 mph N/A   Clear
12:35 PM 62.6 °F - 39.4 °F 42% 29.90 in 10.0 mi East 16.1 mph 27.6 mph N/A   Clear
12:55 PM 63.1 °F - 39.6 °F 42% 29.89 in 10.0 mi East 16.1 mph 25.3 mph N/A   Clear
1:15 PM 63.5 °F - 39.4 °F 41% 29.89 in 10.0 mi East 17.3 mph 23.0 mph N/A   Clear
1:35 PM 63.1 °F - 37.4 °F 39% 29.88 in 10.0 mi ENE 17.3 mph 23.0 mph N/A   Clear
1:55 PM 63.9 °F - 37.8 °F 38% 29.88 in 10.0 mi ENE 20.7 mph - N/A   Clear
2:15 PM 64.4 °F - 37.6 °F 37% 29.88 in 10.0 mi East 18.4 mph 25.3 mph N/A   Clear
2:35 PM 64.2 °F - 36.7 °F 36% 29.88 in 10.0 mi ENE 24.2 mph 27.6 mph N/A   Clear
2:55 PM 63.7 °F - 36.7 °F 37% 29.88 in 10.0 mi ENE 20.7 mph 26.5 mph N/A   Clear
3:15 PM 63.5 °F - 36.1 °F 36% 29.87 in 10.0 mi ENE 24.2 mph 28.8 mph N/A   Clear
3:35 PM 63.9 °F - 36.1 °F 36% 29.88 in 10.0 mi East 19.6 mph 27.6 mph N/A   Clear
3:55 PM 63.1 °F - 35.8 °F 36% 29.88 in 10.0 mi ENE 20.7 mph 25.3 mph N/A   Clear
4:15 PM 63.1 °F - 35.6 °F 36% 29.88 in 10.0 mi ENE 18.4 mph 24.2 mph N/A   Clear
4:35 PM 62.8 °F - 35.2 °F 36% 29.88 in 10.0 mi East 17.3 mph - N/A   Clear
4:55 PM 62.6 °F - 35.4 °F 36% 29.90 in 10.0 mi East 15.0 mph 21.9 mph N/A   Clear
5:15 PM 61.9 °F - 35.4 °F 37% 29.89 in 10.0 mi East 16.1 mph 20.7 mph N/A   Clear
5:35 PM 61.7 °F - 35.2 °F 37% 29.89 in 10.0 mi ENE 15.0 mph - N/A   Clear
5:55 PM 60.6 °F - 34.9 °F 38% 29.88 in 10.0 mi ENE 18.4 mph 23.0 mph N/A   Clear
6:15 PM 60.1 °F - 35.2 °F 39% 29.90 in 10.0 mi ENE 9.2 mph 23.0 mph N/A   Clear
6:35 PM 59.9 °F - 36.3 °F 41% 29.90 in 10.0 mi ENE 15.0 mph - N/A   Clear
6:55 PM 59.5 °F - 37.0 °F 43% 29.90 in 10.0 mi ENE 11.5 mph 19.6 mph N/A   Clear
7:15 PM 58.6 °F - 35.8 °F 42% 29.90 in 10.0 mi ENE 17.3 mph - N/A   Clear
7:35 PM 57.4 °F - 35.4 °F 44% 29.91 in 10.0 mi ENE 13.8 mph 17.3 mph N/A   Clear
7:55 PM 56.3 °F - 35.1 °F 45% 29.91 in 10.0 mi NE 15.0 mph - N/A   Clear
8:15 PM 54.5 °F - 35.8 °F 49% 29.91 in 10.0 mi NE 16.1 mph - N/A   Clear
8:35 PM 52.9 °F - 35.1 °F 51% 29.92 in 10.0 mi NE 15.0 mph - N/A   Clear
8:55 PM 51.8 °F - 34.9 °F 53% 29.91 in 10.0 mi NE 18.4 mph - N/A   Clear
9:15 PM 50.9 °F - 34.9 °F 54% 29.93 in 10.0 mi NE 16.1 mph - N/A   Clear
9:35 PM 50.0 °F - 35.1 °F 57% 29.94 in 10.0 mi ENE 12.7 mph 19.6 mph N/A   Clear
9:55 PM 49.3 °F - 35.2 °F 58% 29.94 in 10.0 mi ENE 8.1 mph 18.4 mph N/A   Clear
10:15 PM 48.4 °F - 35.2 °F 60% 29.95 in 10.0 mi ENE 8.1 mph - N/A   Clear
10:35 PM 48.2 °F - 34.9 °F 60% 29.95 in 10.0 mi ENE 13.8 mph 17.3 mph N/A   Clear
10:55 PM 47.3 °F - 35.1 °F 62% 29.94 in 10.0 mi NE 16.1 mph - N/A   Clear
11:15 PM 46.9 °F - 35.2 °F 64% 29.95 in 10.0 mi ENE 12.7 mph - N/A   Clear
11:35 PM 46.4 °F 40.4 °F 35.4 °F 66% 29.94 in 10.0 mi ENE 13.8 mph 18.4 mph N/A   Clear
11:55 PM 46.4 °F 40.1 °F 35.6 °F 66% 29.94 in 10.0 mi ENE 15.0 mph - N/A   Clear